This is the latest recevied weather packets stored in our database for station/object NO3U. If no packets are shown the sender has not sent any weather packets the latest 10 day(s).
| Time | Temp. | Humidity | Pressure | Rain* | Wind** | Luminosity | Snow |
|---|---|---|---|---|---|---|---|
| 1777490775 | 13.89° C | 99% | 1006.9 hPa | 1.78 mm | - | 183 W/m² | - |
| 1777490473 | 13.89° C | 99% | 1006.6 hPa | 0 mm | - | 80 W/m² | - |
| 1777490169 | 13.89° C | 99% | 1006.5 hPa | 0 mm | - | 66 W/m² | - |
| 1777489866 | 13.89° C | 99% | 1007 hPa | 0 mm | - | 45 W/m² | - |
| 1777489564 | 13.89° C | 99% | 1007 hPa | 0 mm | - | 55 W/m² | - |
| 1777489261 | 13.89° C | 99% | 1007.3 hPa | 0 mm | - | 47 W/m² | - |
| 1777488957 | 13.89° C | 99% | 1007.2 hPa | 1.78 mm | - | 45 W/m² | - |
| 1777488655 | 13.89° C | 99% | 1007.1 hPa | 1.78 mm | - | 71 W/m² | - |
| 1777488352 | 13.89° C | 99% | 1007.1 hPa | 1.27 mm | - | 44 W/m² | - |
| 1777488051 | 13.89° C | 99% | 1007.2 hPa | 3.05 mm | - | 45 W/m² | - |
| 1777487748 | 13.89° C | 99% | 1007.1 hPa | 1.78 mm | - | 41 W/m² | - |
| 1777487446 | 13.89° C | 99% | 1007.2 hPa | 0 mm | - | 53 W/m² | - |
| 1777487143 | 13.89° C | 99% | 1007.1 hPa | 0 mm | - | 59 W/m² | - |
| 1777486838 | 13.89° C | 99% | 1007 hPa | 4.32 mm | - | 59 W/m² | - |
| 1777486535 | 14.44° C | 99% | 1007 hPa | 7.11 mm | - | 44 W/m² | - |
| 1777486233 | 15° C | 99% | 1007.1 hPa | 1.27 mm | - | 17 W/m² | - |
| 1777485925 | 15.56° C | 99% | 1006.7 hPa | 0 mm | - | 22 W/m² | - |
| 1777485621 | 15.56° C | 99% | 1006.7 hPa | 0 mm | - | 47 W/m² | - |
| 1777485316 | 15.56° C | 99% | 1006.8 hPa | 0 mm | - | 81 W/m² | - |
| 1777485013 | 15.56° C | 99% | 1006.6 hPa | 0 mm | - | 82 W/m² | - |
| 1777484710 | 15.56° C | 99% | 1006.8 hPa | 0 mm | - | 214 W/m² | - |
| 1777484406 | 15° C | 99% | 1006.5 hPa | 0 mm | - | 215 W/m² | - |
| 1777484103 | 15° C | 99% | 1006.7 hPa | 0 mm | - | 231 W/m² | - |
| 1777483799 | 14.44° C | 99% | 1006.9 hPa | 1.78 mm | - | 133 W/m² | - |
| 1777483495 | 14.44° C | 99% | 1007 hPa | 1.27 mm | - | 77 W/m² | - |
* Rain latest hour (hover to see other rain measurements)
** Current wind speed in m/s (hover to see current wind gust speed)